Wind_Speed
21 22 20 19 19 17 16 16 13 12 12 10 10 11 10 10 8 8 7 6 6 6 6 5 6 6 7 9 10 12 14 15 17 18 19 20 20 21 20 20 20 19 19 18
19 19 19 19 20 18 16 14 13 12 10 8 9 9 9 8 8 7 6 6 7 7 7 6 5 6 7 9 10 12 14 15 16 18 18 19 20 21 20 20 20 20 19 18
17 18 19 19 19 17 14 13 12 11 7 7 7 7 7 8 8 7 7 7 8 7 7 6 6 6 7 9 11 12 14 15 16 18 18 19 20 20 20 20 19 19 19 18
18 18 18 17 16 15 14 13 9 8 7 5 6 6 7 9 8 7 7 7 8 7 7 6 6 7 8 9 11 12 14 15 16 17 18 19 20 20 20 20 20 19 19 18
15 16 15 14 14 14 12 10 8 6 5 4 5 5 8 10 8 7 7 7 7 7 7 7 7 7 8 9 11 12 13 15 16 17 18 19 19 20 20 20 20 19 19 18
12 12 13 13 13 11 9 7 5 4 3 3 4 5 7 10 8 7 7 7 7 8 8 8 8 8 8 9 11 12 13 14 16 17 18 19 19 19 20 20 20 19 18 18
8 8 8 9 9 9 8 6 3 1 3 4 7 7 9 9 8 9 8 8 8 8 8 8 8 8 8 9 10 12 13 14 15 16 17 18 19 19 20 20 20 19 18 18
6 4 6 7 8 8 8 6 5 3 2 4 7 9 11 9 9 9 9 9 9 8 9 8 8 8 9 9 10 11 13 14 15 16 17 18 18 19 19 20 20 20 19 18
5 3 4 5 6 7 7 7 6 4 3 3 4 9 11 11 10 9 9 9 9 9 9 9 9 9 9 9 10 12 13 14 15 16 17 18 18 18 19 19 20 20 19 19
5 2 2 4 5 5 6 6 6 5 4 3 5 7 11 11 12 11 10 10 10 10 10 10 9 9 9 9 10 11 13 13 14 15 17 17 17 18 18 19 19 19 19 18
5 3 2 3 4 5 5 6 6 6 5 5 8 10 12 13 13 13 12 11 11 11 11 11 10 9 9 9 10 11 13 13 14 15 16 17 17 17 18 18 19 19 18 18
6 4 2 4 5 7 8 8 8 9 9 8 10 11 13 14 14 13 13 12 12 12 12 11 11 10 10 10 10 11 13 13 14 15 16 16 16 17 17 18 18 18 18 18
5 5 3 5 7 8 8 9 10 11 10 10 11 12 13 15 15 14 14 14 13 12 12 12 12 11 11 11 11 12 13 13 14 15 15 16 16 16 16 17 17 18 17 17
5 6 6 8 9 10 10 10 11 12 12 12 13 14 14 15 16 16 15 15 14 14 14 13 13 13 12 12 12 12 13 13 14 14 15 16 16 16 16 16 16 17 17 17
6 7 8 10 11 11 12 12 13 14 14 15 15 15 15 16 17 17 17 16 16 15 15 15 14 14 14 14 14 13 13 14 14 14 15 15 16 16 16 15 16 15 16 16
7 8 9 10 11 12 13 13 14 15 15 16 16 16 16 17 18 18 18 17 16 16 16 16 15 15 15 16 15 15 15 14 14 14 15 15 15 15 15 15 15 15 15 15
9 9 10 10 11 13 13 14 15 16 16 17 18 18 18 19 19 19 19 18 18 17 17 17 17 16 16 17 17 17 16 15 15 15 15 15 15 15 15 15 15 15 14 14
11 12 12 12 13 15 13 14 16 17 18 19 20 19 19 20 20 20 20 19 19 19 18 18 18 18 18 18 18 18 17 17 16 16 16 15 15 15 15 15 15 15 15 14
13 14 15 15 16 16 16 17 18 19 20 20 20 20 21 21 21 22 21 21 20 20 20 20 20 20 19 19 19 19 19 18 18 17 17 16 16 16 16 16 16 15 15 15
16 17 18 18 19 19 19 19 19 20 22 21 21 22 22 22 23 23 23 22 22 22 22 22 22 22 21 21 21 21 21 20 19 19 19 18 17 17 17 17 16 16 16 15
19 20 20 21 22 22 22 23 23 24 25 24 24 24 24 24 25 25 24 24 24 24 25 25 24 24 24 24 23 23 23 22 21 21 20 20 19 19 18 18 18 18 17 17
22 23 24 25 25 26 25 26 27 28 28 28 28 28 27 27 28 28 27 27 27 26 27 27 27 26 26 26 26 25 25 24 24 23 23 22 21 21 20 20 20 19 19 18
25 26 28 28 29 29 30 31 31 31 32 32 32 31 31 30 30 31 30 30 30 29 29 29 29 29 28 28 28 27 27 26 26 25 25 24 23 23 22 22 21 21 20 20
29 30 31 32 32 33 34 35 36 36 36 35 35 35 35 34 33 33 33 33 32 32 31 31 31 31 30 30 30 30 29 29 29 28 27 27 26 25 25 24 23 23 23 22
32 33 34 35 36 37 37 38 39 39 39 39 39 38 38 37 37 36 35 35 35 34 34 33 33 33 32 32 32 32 32 32 31 30 30 29 28 28 27 26 26 25 25 24
35 37 38 38 39 41 42 42 42 42 41 41 41 40 40 40 39 39 38 38 38 37 37 36 35 35 35 35 34 34 34 34 33 33 32 32 31 30 29 29 28 28 27 27
Wind_Direction
192 196 199 203 201 201 206 214 223 238 249 254 265 273 280 284 283 274 266 267 276 287 297 306 315 321 329 335 337 339 341 341 341 341 342 343 344 344 343 342 341 339 338 335
183 186 188 192 196 203 207 211 222 235 244 257 265 275 282 283 287 276 266 274 277 283 293 302 312 319 326 333 337 338 339 340 342 343 343 344 345 345 345 344 342 342 341 338
172 180 186 192 197 201 206 215 222 236 236 257 270 284 286 281 287 278 270 274 276 278 288 293 305 315 322 331 335 337 338 339 341 343 344 345 346 347 347 346 345 344 343 340
170 181 186 190 197 203 209 215 228 245 253 263 277 289 292 291 287 272 270 276 277 281 287 293 300 308 317 326 332 334 336 338 340 343 344 346 346 348 348 348 347 346 346 344
172 176 179 185 194 202 208 218 234 248 261 273 283 284 294 291 288 274 271 276 282 284 284 289 295 303 313 322 328 332 335 337 341 343 345 346 347 348 349 349 349 348 347 347
161 169 177 187 192 201 206 211 217 234 272 304 283 281 285 279 289 288 279 278 279 282 283 286 292 299 309 318 325 330 334 336 340 343 345 346 347 348 349 350 350 350 350 350
139 159 181 194 191 195 199 198 191 293 335 326 302 289 269 269 286 287 286 281 279 281 282 285 290 296 306 315 322 328 332 335 338 341 344 346 347 349 350 352 353 353 353 352
122 146 181 197 201 198 194 200 208 232 245 287 302 298 292 291 285 284 284 283 281 281 282 284 290 294 303 313 319 325 330 334 337 340 343 345 346 348 351 352 354 354 355 354
137 163 195 210 215 215 210 214 226 233 246 269 282 290 296 288 284 284 285 284 282 282 282 282 287 291 297 307 315 322 327 332 336 339 342 343 346 348 351 353 354 355 355 356
146 171 232 227 225 230 239 237 238 245 245 256 275 273 277 288 292 292 289 286 283 284 283 281 284 289 295 304 313 320 326 330 334 338 340 342 344 347 350 352 353 355 356 357
174 188 256 266 256 250 249 251 256 257 257 257 267 271 278 289 291 291 290 287 283 284 284 282 282 287 292 300 309 318 325 329 332 336 339 340 342 345 348 351 353 355 357 358
192 188 255 291 289 280 270 259 253 255 254 254 273 283 281 286 287 288 287 285 282 282 283 282 282 284 288 294 303 312 321 327 330 333 337 339 341 343 346 349 352 355 357 359
203 194 202 263 283 281 272 265 263 260 260 263 272 279 280 286 287 287 286 286 283 279 279 280 280 281 286 290 297 306 316 323 327 331 334 337 339 341 343 346 349 353 355 358
227 225 229 251 260 272 280 276 272 268 266 266 270 274 276 281 285 285 285 285 283 278 276 277 277 279 283 287 292 301 310 317 323 327 331 334 337 338 340 342 345 349 353 355
252 246 249 258 265 271 276 275 274 273 272 270 270 271 274 277 280 283 284 282 281 278 276 276 276 277 280 283 288 294 302 309 316 321 326 330 334 337 338 338 340 344 349 352
275 270 267 269 274 275 275 275 275 275 275 276 277 277 277 277 278 281 283 282 279 277 276 276 276 277 279 279 282 288 295 301 307 313 318 324 328 333 336 337 337 339 343 348
288 282 277 277 280 280 278 280 280 279 277 276 277 278 279 279 279 280 280 280 278 277 275 275 275 276 277 277 278 283 288 294 300 304 310 316 321 326 330 333 334 336 337 340
289 286 284 284 285 284 289 283 282 282 280 278 278 279 279 279 279 278 278 277 275 274 274 273 273 274 275 276 277 278 283 287 292 297 301 307 313 317 322 326 328 331 332 333
291 289 287 286 286 290 289 287 287 287 283 280 280 279 279 280 278 277 276 274 273 273 272 272 272 272 273 274 275 276 279 282 287 291 294 297 302 308 313 317 321 323 325 327
289 287 287 288 287 288 289 288 289 288 284 282 282 281 280 279 278 278 278 276 275 273 272 271 271 271 272 273 274 274 276 278 282 285 287 290 294 298 303 307 311 315 319 320
288 288 287 287 286 286 288 287 287 284 284 285 283 282 281 279 278 277 276 275 275 273 272 270 270 270 271 271 272 273 274 275 277 280 282 284 287 291 295 299 303 306 310 313
286 285 285 284 284 284 286 285 283 282 283 283 283 282 281 280 278 277 275 274 273 272 271 270 269 269 269 270 271 272 272 273 274 275 278 280 282 285 288 292 296 298 301 305
283 283 282 281 281 284 284 282 282 281 281 281 281 281 280 279 278 277 276 275 274 273 271 270 269 268 268 269 270 270 271 271 272 272 274 276 278 280 283 286 289 292 294 297
282 282 281 281 281 280 280 280 281 281 281 281 280 280 279 278 277 276 275 273 272 272 270 269 268 268 267 267 268 269 269 269 270 270 271 273 275 278 280 282 284 286 288 291
285 282 280 279 280 279 278 279 279 280 280 279 279 279 278 277 276 275 274 272 271 270 269 268 268 267 267 267 267 268 268 267 267 267 268 270 272 275 277 279 280 282 284 286
284 282 281 281 280 279 279 279 278 278 278 277 277 277 277 276 276 275 274 273 271 270 269 268 267 266 266 266 266 266 266 266 266 266 266 268 270 272 274 275 277 279 281 282
Height
5796 5803 5808 5812 5817 5821 5824 5828 5830 5833 5834 5836 5838 5838 5839 5839 5839 5839 5839 5840 5840 5840 5840 5840 5839 5838 5837 5836 5835 5833 5831 5829 5827 5824 5820 5817 5813 5809 5804 5800 5796 5792 5788 5785
5798 5803 5808 5812 5816 5819 5822 5826 5829 5831 5833 5835 5837 5837 5837 5837 5837 5838 5838 5839 5839 5839 5839 5838 5838 5837 5836 5835 5834 5832 5830 5828 5826 5822 5819 5816 5812 5807 5803 5799 5795 5791 5787 5783
5799 5804 5807 5812 5815 5819 5822 5825 5827 5829 5831 5834 5836 5836 5836 5836 5837 5837 5837 5838 5838 5837 5838 5837 5837 5836 5835 5834 5833 5831 5829 5827 5824 5821 5818 5814 5810 5806 5802 5798 5794 5790 5786 5782
5799 5803 5808 5812 5815 5819 5822 5824 5827 5829 5831 5833 5835 5835 5835 5835 5836 5836 5836 5836 5837 5837 5836 5836 5836 5835 5834 5833 5832 5830 5828 5826 5823 5820 5817 5813 5810 5806 5801 5797 5793 5789 5785 5780
5800 5804 5809 5812 5816 5819 5822 5825 5828 5830 5831 5833 5834 5835 5835 5834 5834 5835 5835 5835 5835 5835 5835 5835 5835 5834 5833 5832 5830 5829 5827 5825 5822 5819 5816 5812 5809 5805 5801 5796 5792 5788 5784 5780
5803 5807 5810 5813 5816 5820 5823 5826 5828 5830 5831 5833 5834 5835 5835 5833 5833 5834 5834 5834 5834 5834 5834 5834 5833 5832 5831 5830 5829 5827 5826 5823 5821 5818 5815 5811 5808 5804 5800 5796 5792 5787 5783 5779
5808 5810 5813 5815 5818 5822 5824 5827 5829 5830 5831 5833 5833 5834 5834 5832 5833 5832 5833 5833 5833 5832 5832 5832 5831 5831 5830 5829 5828 5826 5824 5822 5820 5817 5814 5810 5807 5803 5799 5795 5791 5787 5783 5779
5811 5814 5816 5818 5820 5822 5824 5826 5829 5830 5831 5833 5833 5832 5832 5831 5831 5831 5831 5831 5831 5831 5830 5830 5830 5829 5828 5827 5826 5825 5823 5821 5818 5816 5813 5809 5806 5802 5799 5795 5791 5786 5782 5778
5813 5816 5817 5819 5821 5823 5824 5825 5827 5828 5830 5831 5833 5832 5831 5829 5829 5830 5829 5829 5829 5829 5828 5828 5828 5827 5827 5826 5825 5823 5822 5819 5817 5814 5812 5808 5805 5802 5798 5794 5790 5786 5782 5778
5815 5816 5818 5819 5821 5823 5824 5825 5827 5828 5829 5830 5831 5831 5830 5828 5827 5828 5827 5827 5827 5827 5826 5826 5826 5825 5825 5824 5823 5822 5820 5818 5816 5813 5810 5807 5804 5801 5797 5794 5790 5786 5782 5778
5816 5818 5819 5820 5821 5822 5824 5825 5825 5826 5827 5828 5829 5831 5828 5827 5826 5826 5825 5825 5824 5824 5824 5824 5824 5823 5823 5822 5821 5820 5818 5816 5814 5812 5809 5806 5803 5800 5797 5793 5790 5786 5782 5778
5816 5818 5819 5820 5821 5821 5822 5823 5824 5825 5825 5826 5826 5829 5825 5824 5824 5823 5823 5822 5822 5822 5822 5821 5821 5821 5821 5820 5819 5818 5817 5815 5813 5810 5808 5805 5802 5799 5796 5793 5789 5786 5782 5779
5816 5818 5819 5820 5821 5821 5820 5821 5821 5822 5823 5823 5824 5826 5823 5822 5821 5820 5820 5819 5819 5819 5819 5819 5819 5818 5818 5818 5817 5816 5815 5813 5811 5809 5806 5804 5801 5798 5795 5792 5789 5785 5782 5779
5816 5817 5818 5819 5818 5818 5818 5819 5819 5820 5820 5820 5821 5821 5821 5819 5818 5817 5817 5817 5816 5816 5816 5816 5816 5815 5815 5815 5814 5814 5812 5811 5809 5807 5805 5802 5800 5797 5794 5791 5788 5785 5782 5779
5815 5815 5815 5816 5816 5816 5816 5816 5816 5816 5817 5817 5817 5816 5817 5816 5815 5814 5814 5814 5813 5813 5813 5813 5813 5812 5812 5812 5811 5811 5810 5808 5807 5805 5803 5801 5798 5795 5793 5790 5787 5784 5782 5779
5813 5813 5813 5814 5814 5813 5813 5814 5813 5813 5813 5813 5813 5813 5813 5812 5811 5811 5810 5810 5810 5809 5809 5809 5809 5809 5809 5808 5808 5807 5807 5805 5804 5802 5801 5799 5796 5794 5791 5789 5786 5784 5781 5778
5810 5810 5810 5811 5811 5810 5811 5811 5810 5810 5810 5809 5809 5810 5808 5808 5807 5807 5806 5806 5806 5805 5805 5805 5805 5805 5804 5804 5804 5804 5803 5802 5801 5799 5798 5796 5794 5792 5790 5787 5785 5782 5780 5777
5808 5807 5807 5807 5808 5807 5810 5807 5806 5806 5805 5805 5804 5804 5804 5803 5802 5802 5801 5801 5801 5801 5801 5800 5800 5800 5800 5800 5800 5799 5799 5798 5797 5796 5795 5793 5791 5789 5787 5785 5783 5781 5778 5776
5804 5804 5803 5803 5803 5803 5804 5803 5802 5801 5800 5800 5799 5799 5798 5798 5797 5796 5796 5796 5796 5796 5796 5795 5795 5795 5795 5795 5794 5794 5794 5793 5793 5792 5791 5789 5788 5786 5784 5783 5781 5778 5776 5774
5800 5800 5800 5799 5798 5798 5800 5797 5796 5797 5795 5794 5794 5793 5793 5792 5792 5791 5791 5790 5790 5790 5790 5790 5790 5789 5789 5789 5789 5789 5788 5788 5788 5787 5786 5785 5784 5782 5781 5779 5778 5776 5774 5772
5796 5795 5795 5794 5793 5793 5793 5791 5791 5791 5789 5788 5787 5786 5786 5786 5786 5785 5784 5784 5784 5784 5784 5784 5784 5783 5783 5783 5783 5782 5782 5782 5782 5781 5781 5780 5779 5778 5777 5775 5774 5772 5770 5769
5791 5790 5789 5788 5787 5788 5785 5785 5785 5784 5781 5780 5780 5779 5779 5778 5778 5777 5777 5777 5777 5777 5777 5776 5776 5777 5776 5776 5776 5776 5776 5776 5775 5775 5774 5774 5773 5773 5772 5770 5769 5768 5766 5765
5785 5784 5782 5782 5782 5780 5778 5776 5776 5774 5773 5772 5772 5771 5771 5770 5770 5769 5769 5769 5769 5769 5769 5769 5769 5769 5769 5769 5768 5768 5768 5768 5768 5768 5768 5767 5767 5766 5766 5765 5764 5763 5761 5760
5777 5776 5774 5773 5772 5771 5769 5768 5766 5765 5765 5764 5763 5763 5762 5761 5760 5760 5760 5760 5760 5760 5760 5760 5760 5760 5760 5760 5760 5760 5760 5760 5760 5760 5760 5760 5760 5760 5759 5758 5757 5757 5756 5755
5768 5766 5764 5763 5763 5761 5760 5758 5757 5755 5754 5754 5753 5752 5751 5750 5750 5750 5750 5750 5750 5750 5750 5750 5750 5750 5751 5751 5751 5751 5751 5751 5751 5751 5752 5752 5752 5752 5751 5751 5750 5750 5749 5748
5757 5755 5753 5752 5751 5749 5748 5746 5745 5744 5743 5742 5741 5741 5740 5739 5739 5739 5738 5738 5738 5738 5738 5739 5739 5740 5740 5740 5741 5741 5741 5741 5741 5741 5742 5743 5743 5743 5743 5743 5742 5742 5741 5740